STARLINK-11183, 60189

Orbit data source: Space-Track

STARLINK-11183, 60189 is a payload satellite owned by SpaceX/Seattle (US) in LEO that was launched on Wed, 03 Jul 2024 UTC via an FALCON 9 launch vehicle from the Air Force Eastern Test Range (AFETR). Payload-class satellites include a variety of spacecraft equipped with specific instruments for various scientific and technological missions. These include communications satellites like Starlink; space stations such as the ISS; scientific satellites like the Hubble; Earth observation satellites from companies like Planet Labs, Umbra, and HawkEye 360; GPS; miniature CubeSats for education and research; and military/defense satellites.

Loading next visibility...
Identifier
60189, 2024-124G
Orbit
LEO
Country
Flag of USUS
Related business
Manufacturer
SpaceX/Seattle
Mission
Operational Commercial Communications
Bus & Motor
STARLINK V2MD, Unknown motor
Mass
960 kg wet, ~910 kg dry
Launch date (UTC)
2024-07-03 (1 year ago)
Launch vehicle
FALCON 9
Launch site
Air Force Eastern Test Range (AFETR)
Object type
Payload
Rocket body
Debris
Shape & HBR
Box + 2 Pan, 18.1 m
Radar Cross Section
36.964 m², Large (>1 m²)

Expand to show TLE details & history
Last TLE update: 1 day ago

TLE from 1 day ago
0 STARLINK-11183
1 60189U 24124G   25308.73126652  .00007408  00000-0  65972-4 0  9999
2 60189  53.1598  57.5724 0001362  52.0789 308.0352 15.69702749 76903
Epoch: 2025-11-04T17:33Z
TLE epoch observation values (Epoch: 2025-11-04T17:33:01.427Z)
Latitude
-0°
Longitude
110.10237°
Altitude
360.097 km
Speed
7.695 km/s
True Right ascension
03h 50m 17s
True Declination
0° 00' 00"
Sunlit
Object was in full shadow at epoch
Visualization orbit readout
Latitude
Unknown
Longitude
Unknown
Altitude
Unknown
Speed
Unknown
Apparent Right ascension
Unknown
Apparent Declination
Unknown
Sunlit
N/A
Visualization observer readout
Local Sidereal Time
22:19:42
Azimuth
Unknown
Elevation
Unknown
Doppler factor
Unknown
Orbital elements
Apogee altitude
360.926 km
Perigee altitude
359.09 km
Semi-major axis
6,738.145 km
Eccentricity
0.00014
Inclination
53.1598°
RAAN
57.5724°
Arg. of periapsis
52.0789°
True anomaly
308.02291°
Mean anomaly
308.0352°
Eccentric anomaly
308.02905°
Mean motion
3.92403 °/min
Orbital period
91.74 mins
BSTAR
0.000065972
Loading maneuver chart data...
Computing Atmospheric mass density...
Loading historical data...
Loading historical data...
Loading historical data...
Loading historical data...
Loading historical data...
Loading historical data...
Loading historical data...

Documentation

Showing up to 5 results
|